Time,TemperatureF,DewpointF,PressureIn,WindDirection,WindDirectionDegrees,WindSpeedMPH,WindSpeedGustMPH,Humidity,HourlyPrecipIn,Conditions,Clouds,dailyrainin,SoftwareType,DateUTC
2013-02-21 00:02:00,14.2,12.0,29.64,NW,326,9.0,13.0,90,0.00,,,0.00,weatherlink.com 1.10,2013-02-21 05:02:00,
2013-02-21 00:17:00,13.7,11.0,29.65,NNE,14,4.0,11.0,90,0.00,,,0.00,weatherlink.com 1.10,2013-02-21 05:17:00,
2013-02-21 00:33:00,13.3,11.0,29.65,North,10,2.0,13.0,90,0.00,,,0.00,weatherlink.com 1.10,2013-02-21 05:33:00,
2013-02-21 00:48:00,13.1,11.0,29.66,North,11,3.0,8.0,90,0.00,,,0.00,weatherlink.com 1.10,2013-02-21 05:48:00,
2013-02-21 01:03:00,13.0,11.0,29.66,NW,310,4.0,7.0,90,0.00,,,0.00,weatherlink.com 1.10,2013-02-21 06:03:00,
2013-02-21 01:18:00,13.0,11.0,29.67,North,5,5.0,9.0,90,0.00,,,0.00,weatherlink.com 1.10,2013-02-21 06:18:00,
2013-02-21 01:33:00,12.2,10.0,29.68,NNW,338,6.0,13.0,89,0.00,,,0.00,weatherlink.com 1.10,2013-02-21 06:33:00,
2013-02-21 01:48:00,10.9,8.0,29.69,North,355,2.0,9.0,88,0.00,,,0.00,weatherlink.com 1.10,2013-02-21 06:48:00,
2013-02-21 02:03:00,10.1,8.0,29.69,North,5,5.0,10.0,89,0.00,,,0.00,weatherlink.com 1.10,2013-02-21 07:03:00,
2013-02-21 02:18:00,9.5,7.0,29.69,North,11,6.0,14.0,88,0.00,,,0.00,weatherlink.com 1.10,2013-02-21 07:18:00,
2013-02-21 02:33:00,8.7,6.0,29.69,North,349,1.0,12.0,88,0.00,,,0.00,weatherlink.com 1.10,2013-02-21 07:33:00,
2013-02-21 02:48:00,7.9,5.0,29.69,NNE,15,4.0,12.0,88,0.00,,,0.00,weatherlink.com 1.10,2013-02-21 07:48:00,
2013-02-21 03:04:00,7.0,4.0,29.71,NE,47,4.0,14.0,87,0.00,,,0.00,weatherlink.com 1.10,2013-02-21 08:04:00,
2013-02-21 03:18:00,6.4,4.0,29.72,NNW,335,6.0,12.0,88,0.00,,,0.00,weatherlink.com 1.10,2013-02-21 08:18:00,
2013-02-21 03:33:00,6.0,3.0,29.71,NNW,340,3.0,14.0,88,0.00,,,0.00,weatherlink.com 1.10,2013-02-21 08:33:00,
2013-02-21 03:48:00,5.8,3.0,29.71,NNW,344,5.0,14.0,88,0.00,,,0.00,weatherlink.com 1.10,2013-02-21 08:48:00,
2013-02-21 04:03:00,5.4,3.0,29.71,North,5,15.0,15.0,88,0.00,,,0.00,weatherlink.com 1.10,2013-02-21 09:03:00,
2013-02-21 04:18:00,5.3,3.0,29.73,NNE,14,5.0,8.0,88,0.00,,,0.00,weatherlink.com 1.10,2013-02-21 09:18:00,
2013-02-21 04:34:00,5.0,2.0,29.73,North,5,5.0,15.0,87,0.00,,,0.00,weatherlink.com 1.10,2013-02-21 09:34:00,
2013-02-21 04:49:00,4.6,2.0,29.74,North,349,5.0,14.0,87,0.00,,,0.00,weatherlink.com 1.10,2013-02-21 09:49:00,
2013-02-21 05:04:00,4.3,1.0,29.74,North,355,3.0,16.0,87,0.00,,,0.00,weatherlink.com 1.10,2013-02-21 10:04:00,
2013-02-21 05:19:00,4.1,1.0,29.75,NNE,23,2.0,11.0,87,0.00,,,0.00,weatherlink.com 1.10,2013-02-21 10:19:00,
2013-02-21 05:34:00,3.8,1.0,29.76,North,355,2.0,15.0,87,0.00,,,0.00,weatherlink.com 1.10,2013-02-21 10:34:00,
2013-02-21 05:49:00,3.7,1.0,29.76,North,5,8.0,13.0,87,0.00,,,0.00,weatherlink.com 1.10,2013-02-21 10:49:00,
2013-02-21 06:04:00,3.6,1.0,29.77,North,360,3.0,9.0,87,0.00,,,0.00,weatherlink.com 1.10,2013-02-21 11:04:00,
2013-02-21 06:19:00,3.5,1.0,29.78,NE,38,7.0,13.0,87,0.00,,,0.00,weatherlink.com 1.10,2013-02-21 11:19:00,
2013-02-21 06:34:00,3.4,0.0,29.78,WNW,291,2.0,11.0,87,0.00,,,0.00,weatherlink.com 1.10,2013-02-21 11:34:00,
2013-02-21 06:49:00,3.3,0.0,29.79,North,355,5.0,8.0,87,0.00,,,0.00,weatherlink.com 1.10,2013-02-21 11:49:00,
2013-02-21 07:04:00,3.3,0.0,29.81,NNW,333,1.0,9.0,87,0.00,,,0.00,weatherlink.com 1.10,2013-02-21 12:04:00,
2013-02-21 07:19:00,3.2,0.0,29.82,NNW,338,3.0,13.0,87,0.00,,,0.00,weatherlink.com 1.10,2013-02-21 12:19:00,
2013-02-21 07:35:00,3.1,0.0,29.82,North,5,9.0,12.0,87,0.00,,,0.00,weatherlink.com 1.10,2013-02-21 12:35:00,
2013-02-21 07:50:00,3.1,0.0,29.83,North,360,4.0,8.0,87,0.00,,,0.00,weatherlink.com 1.10,2013-02-21 12:50:00,
2013-02-21 08:05:00,3.3,0.0,29.83,NNE,13,0.0,12.0,87,0.00,,,0.00,weatherlink.com 1.10,2013-02-21 13:05:00,
2013-02-21 08:20:00,3.3,0.0,29.84,NNE,28,6.0,9.0,87,0.00,,,0.00,weatherlink.com 1.10,2013-02-21 13:20:00,
2013-02-21 08:35:00,3.9,1.0,29.85,NNE,27,4.0,12.0,87,0.00,,,0.00,weatherlink.com 1.10,2013-02-21 13:35:00,
2013-02-21 08:50:00,4.1,1.0,29.85,NW,322,2.0,10.0,86,0.00,,,0.00,weatherlink.com 1.10,2013-02-21 13:50:00,
2013-02-21 09:05:00,4.6,2.0,29.86,NNW,344,6.0,10.0,87,0.00,,,0.00,weatherlink.com 1.10,2013-02-21 14:05:00,
2013-02-21 09:20:00,4.7,1.0,29.86,NNW,342,3.0,9.0,86,0.00,,,0.00,weatherlink.com 1.10,2013-02-21 14:20:00,
2013-02-21 09:35:00,5.1,2.0,29.87,North,355,5.0,8.0,86,0.00,,,0.00,weatherlink.com 1.10,2013-02-21 14:35:00,
2013-02-21 09:50:00,5.3,2.0,29.87,NNW,348,3.0,11.0,87,0.00,,,0.00,weatherlink.com 1.10,2013-02-21 14:50:00,
2013-02-21 10:05:00,5.5,3.0,29.88,North,11,4.0,9.0,87,0.00,,,0.00,weatherlink.com 1.10,2013-02-21 15:05:00,
2013-02-21 10:20:00,6.0,3.0,29.89,NNE,22,3.0,8.0,86,0.00,,,0.00,weatherlink.com 1.10,2013-02-21 15:20:00,
2013-02-21 10:36:00,5.8,3.0,29.90,NNE,15,3.0,10.0,86,0.00,,,0.00,weatherlink.com 1.10,2013-02-21 15:36:00,
2013-02-21 10:51:00,6.3,3.0,29.89,NE,49,1.0,9.0,87,0.00,,,0.00,weatherlink.com 1.10,2013-02-21 15:51:00,
2013-02-21 11:06:00,6.5,3.0,29.90,NNE,21,10.0,12.0,86,0.00,,,0.00,weatherlink.com 1.10,2013-02-21 16:06:00,
2013-02-21 11:21:00,6.9,4.0,29.91,North,11,3.0,10.0,86,0.00,,,0.00,weatherlink.com 1.10,2013-02-21 16:21:00,
2013-02-21 11:36:00,7.4,4.0,29.92,North,5,4.0,10.0,86,0.00,,,0.00,weatherlink.com 1.10,2013-02-21 16:36:00,
2013-02-21 11:51:00,7.7,5.0,29.93,NNW,342,5.0,10.0,87,0.00,,,0.00,weatherlink.com 1.10,2013-02-21 16:51:00,
2013-02-21 12:06:00,8.2,5.0,29.93,NNW,338,3.0,10.0,87,0.00,,,0.00,weatherlink.com 1.10,2013-02-21 17:06:00,
2013-02-21 12:21:00,9.1,6.0,29.93,NNE,32,5.0,9.0,87,0.00,,,0.00,weatherlink.com 1.10,2013-02-21 17:21:00,
2013-02-21 12:36:00,9.4,6.0,29.94,NNE,30,3.0,10.0,87,0.00,,,0.00,weatherlink.com 1.10,2013-02-21 17:36:00,
2013-02-21 12:51:00,9.5,6.0,29.94,NE,38,5.0,11.0,87,0.00,,,0.00,weatherlink.com 1.10,2013-02-21 17:51:00,
2013-02-21 13:06:00,9.7,7.0,29.95,NE,34,4.0,10.0,87,0.00,,,0.00,weatherlink.com 1.10,2013-02-21 18:06:00,
2013-02-21 13:21:00,9.9,7.0,29.96,North,355,2.0,13.0,87,0.00,,,0.00,weatherlink.com 1.10,2013-02-21 18:21:00,
2013-02-21 13:36:00,10.2,7.0,29.96,NNE,30,8.0,11.0,87,0.00,,,0.00,weatherlink.com 1.10,2013-02-21 18:36:00,
2013-02-21 13:51:00,9.8,7.0,29.97,NNE,15,12.0,13.0,87,0.00,,,0.00,weatherlink.com 1.10,2013-02-21 18:51:00,
2013-02-21 14:07:00,10.0,7.0,29.98,NNW,348,4.0,11.0,87,0.00,,,0.00,weatherlink.com 1.10,2013-02-21 19:07:00,
2013-02-21 14:22:00,9.9,7.0,29.99,North,10,5.0,12.0,87,0.00,,,0.00,weatherlink.com 1.10,2013-02-21 19:22:00,
2013-02-21 14:37:00,9.6,7.0,30.00,NNE,28,6.0,9.0,88,0.00,,,0.00,weatherlink.com 1.10,2013-02-21 19:37:00,
2013-02-21 14:52:00,9.5,7.0,30.02,NNW,348,5.0,9.0,88,0.00,,,0.00,weatherlink.com 1.10,2013-02-21 19:52:00,
2013-02-21 15:07:00,9.5,7.0,30.03,NE,45,4.0,11.0,88,0.00,,,0.00,weatherlink.com 1.10,2013-02-21 20:07:00,
2013-02-21 15:22:00,9.6,7.0,30.04,NNE,30,7.0,10.0,88,0.00,,,0.00,weatherlink.com 1.10,2013-02-21 20:22:00,
2013-02-21 15:37:00,9.6,7.0,30.05,NNE,20,5.0,11.0,89,0.00,,,0.00,weatherlink.com 1.10,2013-02-21 20:37:00,
2013-02-21 15:52:00,9.6,7.0,30.06,NNE,22,4.0,13.0,88,0.00,,,0.00,weatherlink.com 1.10,2013-02-21 20:52:00,
2013-02-21 16:07:00,9.6,7.0,30.07,NNE,26,8.0,15.0,89,0.00,,,0.00,weatherlink.com 1.10,2013-02-21 21:07:00,
2013-02-21 16:22:00,9.7,7.0,30.08,North,11,9.0,12.0,89,0.00,,,0.00,weatherlink.com 1.10,2013-02-21 21:22:00,
2013-02-21 16:37:00,9.9,7.0,30.10,NNE,30,6.0,10.0,89,0.00,,,0.00,weatherlink.com 1.10,2013-02-21 21:37:00,
2013-02-21 16:53:00,9.9,7.0,30.11,NE,41,6.0,7.0,89,0.00,,,0.00,weatherlink.com 1.10,2013-02-21 21:53:00,
2013-02-21 17:07:00,10.0,7.0,30.13,NNE,24,6.0,10.0,89,0.00,,,0.00,weatherlink.com 1.10,2013-02-21 22:07:00,
2013-02-21 17:23:00,9.9,7.0,30.14,NE,46,2.0,8.0,89,0.00,,,0.00,weatherlink.com 1.10,2013-02-21 22:23:00,
2013-02-21 17:38:00,9.9,8.0,30.15,NNE,27,4.0,8.0,90,0.00,,,0.00,weatherlink.com 1.10,2013-02-21 22:38:00,
2013-02-21 17:53:00,10.0,8.0,30.16,North,9,5.0,10.0,90,0.00,,,0.00,weatherlink.com 1.10,2013-02-21 22:53:00,
2013-02-21 18:08:00,10.0,8.0,30.18,North,5,5.0,10.0,90,0.00,,,0.00,weatherlink.com 1.10,2013-02-21 23:08:00,
2013-02-21 18:23:00,10.1,8.0,30.19,NNE,17,3.0,7.0,90,0.00,,,0.00,weatherlink.com 1.10,2013-02-21 23:23:00,
2013-02-21 18:38:00,10.2,8.0,30.20,NNE,19,2.0,8.0,90,0.00,,,0.00,weatherlink.com 1.10,2013-02-21 23:38:00,
2013-02-21 18:53:00,10.4,8.0,30.22,NNE,14,2.0,5.0,90,0.00,,,0.00,weatherlink.com 1.10,2013-02-21 23:53:00,
2013-02-21 19:08:00,10.5,8.0,30.22,NE,46,2.0,6.0,90,0.00,,,0.00,weatherlink.com 1.10,2013-02-22 00:08:00,
2013-02-21 19:23:00,10.6,8.0,30.23,NE,42,4.0,5.0,90,0.00,,,0.00,weatherlink.com 1.10,2013-02-22 00:23:00,
2013-02-21 19:38:00,10.8,9.0,30.23,NE,47,4.0,8.0,90,0.00,,,0.00,weatherlink.com 1.10,2013-02-22 00:38:00,
2013-02-21 19:53:00,11.2,9.0,30.24,NE,43,3.0,8.0,90,0.00,,,0.00,weatherlink.com 1.10,2013-02-22 00:53:00,
2013-02-21 20:08:00,11.4,9.0,30.24,NNE,19,2.0,8.0,90,0.00,,,0.00,weatherlink.com 1.10,2013-02-22 01:08:00,
2013-02-21 20:23:00,11.6,9.0,30.25,North,355,3.0,6.0,90,0.00,,,0.00,weatherlink.com 1.10,2013-02-22 01:23:00,
2013-02-21 20:39:00,12.0,10.0,30.26,NNE,24,2.0,7.0,91,0.00,,,0.00,weatherlink.com 1.10,2013-02-22 01:39:00,
2013-02-21 20:54:00,12.8,11.0,30.26,NNE,28,9.0,9.0,92,0.00,,,0.00,weatherlink.com 1.10,2013-02-22 01:54:00,
2013-02-21 21:09:00,14.0,12.0,30.26,NE,34,5.0,7.0,92,0.00,,,0.00,weatherlink.com 1.10,2013-02-22 02:09:00,
2013-02-21 21:24:00,14.4,13.0,30.26,NNE,24,4.0,7.0,92,0.00,,,0.00,weatherlink.com 1.10,2013-02-22 02:24:00,
2013-02-21 21:39:00,14.6,13.0,30.25,NE,40,3.0,6.0,91,0.00,,,0.00,weatherlink.com 1.10,2013-02-22 02:39:00,
2013-02-21 21:54:00,15.1,13.0,30.26,North,355,6.0,7.0,92,0.00,,,0.00,weatherlink.com 1.10,2013-02-22 02:54:00,
2013-02-21 22:09:00,15.3,13.0,30.27,NNE,15,2.0,4.0,91,0.00,,,0.00,weatherlink.com 1.10,2013-02-22 03:09:00,
2013-02-21 22:24:00,15.3,13.0,30.27,NNE,22,3.0,6.0,91,0.00,,,0.00,weatherlink.com 1.10,2013-02-22 03:24:00,
2013-02-21 22:39:00,15.6,14.0,30.27,North,5,2.0,8.0,92,0.00,,,0.00,weatherlink.com 1.10,2013-02-22 03:39:00,
2013-02-21 22:55:00,15.9,14.0,30.28,North,5,2.0,6.0,92,0.00,,,0.00,weatherlink.com 1.10,2013-02-22 03:55:00,
2013-02-21 23:09:00,16.4,15.0,30.29,North,351,1.0,5.0,92,0.00,,,0.00,weatherlink.com 1.10,2013-02-22 04:09:00,
2013-02-21 23:24:00,16.6,15.0,30.32,WNW,302,2.0,5.0,92,0.00,,,0.00,weatherlink.com 1.10,2013-02-22 04:24:00,
2013-02-21 23:39:00,16.1,14.0,30.33,NNE,14,2.0,5.0,91,0.00,,,0.00,weatherlink.com 1.10,2013-02-22 04:39:00,
2013-02-21 23:55:00,16.4,15.0,30.34,North,350,0.0,7.0,92,0.00,,,0.00,weatherlink.com 1.10,2013-02-22 04:55:00,